Flag for Moldova Weather past 2 weeks in Bălți, Moldova

Now
72 °F

Scattered clouds.


Feels Like: 77 °F
Forecast: 49 / 64 °F
Wind: 16 mph from Southeast

Location: Baltsi-Leadoveni - The North of Moldova

Current Time: Apr 28, 2015 at 3:34:23 PM

Latest Report: Apr 28, 2015 at 3:00 PM


Visibility: N/A

Pressure: 29.80 "Hg

Humidity: 44%

Dew point: 48 °F

Location of BălțiLocation

Historic Weather in Bălți — Graph

°F

Bălți temperature yesterday

Maximum temperature yesterday: 75 °F (at 4:00 PM)
Minimum temperature yesterday: 52 °F (at 6:00 AM)
Average temperature yesterday: 62 °F

Past Weeks' High & Low Weather Summary

 TemperatureHumidityPressure
High75 °F (Apr 16, 3:00 PM)100% (Apr 18, 2:00 AM)30.15 "Hg (Apr 18, 2:00 AM)
Low34 °F (Apr 21, 5:30 AM)22% (Apr 16, 6:00 PM)29.65 "Hg (Apr 20, 12:00 PM)
Average52 °F60%29.93 "Hg
* Reported Apr 13 2:00 PM — Apr 28 2:00 PM, Bălți, Weather by CustomWeather, © 2015

Note: Actual official high and low records may vary slightly from our data, if they occured in-between our weather recording intervals... More about our weather records

Advertising

Bălți weather history for previous 24 hours

 ConditionsComfort  
Time TempWeatherWind HumidityBarometerVisibility
2:00 PM
Tue, Apr 28
73 °FPassing clouds.17 mph44%29.80 "HgN/A
1:30 PM73 °FPassing clouds.15 mph44%29.83 "HgN/A
1:00 PM72 °FPassing clouds.16 mph47%29.83 "HgN/A
12:30 PM72 °FSunny.16 mph47%29.83 "Hg10 mi
12:00 PM70 °FSunny.16 mph50%29.83 "Hg10 mi
11:30 AM68 °FPassing clouds.14 mph53%29.83 "HgN/A
11:00 AM66 °FSunny.15 mph52%29.86 "Hg10 mi
10:00 AM63 °FSunny.14 mph59%29.86 "Hg10 mi
9:30 AM61 °FSunny.13 mph63%29.86 "Hg10 mi
9:00 AM59 °FPassing clouds.13 mph68%29.83 "HgN/A
8:00 AM55 °FCool.12 mph72%29.86 "HgN/A
7:00 AM52 °FCool.12 mph82%29.83 "HgN/A
6:30 AM52 °FCool.12 mph82%29.83 "HgN/A
6:00 AM52 °FCool.12 mph82%29.83 "HgN/A
5:00 AM52 °FCool.13 mph82%29.83 "HgN/A
4:00 AM54 °FCool.15 mph77%29.83 "HgN/A
2:00 AM55 °FCool.14 mph77%29.86 "HgN/A
1:00 AM57 °FCool.10 mph72%29.86 "HgN/A
12:00 AM59 °FCool.9 mph68%29.86 "HgN/A
11:00 PM
Mon, Apr 27
59 °FCool.9 mph68%29.86 "HgN/A
10:30 PM61 °FCool.9 mph63%29.86 "HgN/A
10:00 PM61 °FCool.12 mph63%29.86 "HgN/A
9:00 PM64 °FMild.14 mph56%29.86 "HgN/A
8:30 PM66 °FMild.17 mph56%29.86 "HgN/A
8:00 PM68 °FMild.13 mph46%29.83 "HgN/A
7:30 PM68 °FMild.14 mph49%29.83 "HgN/A
7:00 PM70 °FMild.16 mph46%29.83 "HgN/A
6:00 PM73 °FPassing clouds.14 mph41%29.83 "HgN/A
5:00 PM73 °FPassing clouds.12 mph38%29.86 "HgN/A
4:00 PM75 °FPassing clouds.12 mph39%29.86 "HgN/A
3:00 PM73 °FPassing clouds.10 mph41%29.86 "HgN/A
Weather by CustomWeather, © 2015

See weather overviewHow to use our weather pages